Погода Лубны

Погода Лубны : погода сейчас, прогноз погоды и архив. Всё, что Вы хотите узнать о погоде Лубны!

Поиск расширенной информации на нашем сайте:

Другие новости

Новости СМИ2

Главная страница сайта

Новости сайта

02.10.2013

Напоминаем, что на нашем новом сайте вы можете получить высокодетализированные прогнозы погоды по пунктам России, СНГ и мира (включающие важные для авиации метеовеличины, такие как направление и скорость ветра, видимость, явления погоды, количество и форма облачности, нижняя и верхняя граница облачности), а также ознакомиться с разнообразными материалами по авиационной метеорологии и подборкой полезных ссылок на эту тему.

Сайт Метеоцентр.Азия посвящён разработке технологий оптимизации авиаметеорологического обслуживания, включая проектирование и перспективное создание нескольких автоматизированных авиаметеорологических систем:
- система выпуска высокодетальных прогностических карт явлений погоды для нижнего воздушного пространства по России и ближнему зарубежью;
- система верификации прогнозов TAF (выпускаемых синоптиками официальных АМСГ РФ и ближнего зарубежья) и AUTOTAF (выпускаемых сайтом Метеоцентр.Азия) - выявление ошибок, онлайн-сопоставление с фактической погодой METAR, автоматическое внесение коррективов в прогнозы при резком отклонении фактической погоды от прогноза, подсчёт оправдываемости прогнозов по элементам и в целом;
- система обработки, анализа и отображения авиаметеорологической информации для применения провайдерами метеорологической информации.


Погода Лубны - сегодня

Время (UTC), дата Ветер
(°,м/с) 
Видим.   Явления Облачность Т
(°С)
Тd
(°С)
f(%) Тe
(°С)
Pmin
(гПа)
dP
(гПа)
Po
(мм)
O2
(г/м3)
Тmin Tmax R s Состояние
почвы
18 19.01.17 250 (З) 4000 м  дымка{снег}  10/9 180 м средняя 
[St|As op]
-9.1 -10.2 92 -9  1036.4  -1.6  762  319    -9.1  0.0     
21 19.01.17 250 (З) 4000 м  дымка  10/8 500 м средняя 
[St|Ac und]
-7.1 -8.4 90 -7  1034.9  -1.3  761  316           
00 20.01.17 270 (З) 10 км    ясно 
-7.9 -9.7 87 -9  1033.2  -1.8  759  316           
03 20.01.17 270 (З) 10 км    3/0 верхняя 
[Ci fib]
-10.8 -12.7 86 -13  1031.4  -2  758  319           
06 20.01.17 270 (З) 10 км    9/0 средняя, верхняя 
[Ac trans|Ci fib]
-8.2 -10.5 83 -11  1029  -2.1  756  315  -10.9      14  равномерный
мокрый или
старый снег
100% 
09 20.01.17 270 (З) 10 км  {ливн. осадки}  10/6 600 м средняя 
[Sc|Ac und]
-5.5 -9.7 72 -9  1028.5  -0.3  756  312           
12 20.01.17 270 (З) 10 км  {ливн. осадки}  10/3 600 м средняя 
[Sc|Ac und]
-4.8 -7.6 81 -7  1026.9  -1.5  755  310      0.0     
15 20.01.17 270 (З) 4400 м  дымка{ливн. осадки}  10/8 330 м средняя 
[St|Ac und]
-4.6 -5.5 93 -7  1026.5  -0.4  755  310           
18 20.01.17 270 (З) 4000 м  в посл. час ливневой снег  10/10 270 м 
[Frnb]
-4.5 -5.4 93 -7  1026.4  -0.1  755  310    -4.4  0.2     
21 20.01.17 270 (З) 4000 м  дымка  10/10 270 м 
[St]
-4.4 -5.3 93 -6  1025.7  -0.6  754  309           
00 21.01.17 290 (З) 4000 м  дымка  10/10 270 м 
[St]
-4.1 -5 93 -5  1024.6  -1.1  753  309           
03 21.01.17 290 (З) 4000 м  дымка  10/10 270 м 
[St]
-3.8 -4.6 94 -5  1023.1  -1.5  752  308           
06 21.01.17 270 (З) 4700 м  слаб. снег  10/9 270 м средняя 
[Frnb|As op]
-3.3 -4 95 -5  1021.8  -1.2  751  307  -4.5    0.0  14  равномерный
сухой снег
100% 
09 21.01.17 300 (СЗ) 6000 м  дымка{снег}  10/8 210 м средняя 
[St|As op]
-1.3 -2.7 90 -4  1021.9  0.3  751  305           
12 21.01.17 290 (З) 10 км  в посл. час снег  10/8 270 м средняя 
[St|As op]
-0.2 -1.9 88 -3  1020.6  -1.2  751  303      0.0     
15 21.01.17 310 (СЗ) 6000 м  слаб. снег  10/8 270 м средняя 
[St|As op]
+0.3 -1 91 -1  1021.2  0.6  751  302           
18 21.01.17 320 (СЗ) 10 км  {снег}  9/6 420 м средняя 
[St|As trans]
+1 -1.3 85 -1  1022.8  1.6  752  302    +1  0.2     
21 21.01.17 340 (С) 10 км    ясно 
-0.1 -2.7 83 -2  1025.7  2.8  754  304           
00 22.01.17 360 (С) 10 км    ясно 
-2.1 -5.6 77 -4  1028.8  2.9  756  308           
03 22.01.17 350 (С) 10 км    ясно 
-4.3 -7 81 -6  1030.6  1.6  758  311           
06 22.01.17 260 (З) 5000 м  дымка  1/0 верхняя 
[Cc]
-8.3 -9.3 92 -8  1032.4  1.4  759  316  -8.4      14  равномерный
мокрый или
старый снег
100% 
09 22.01.17 300 (СЗ) 2700 м  дымка  4/0 верхняя 
[Ci fib]
-6.9 -7.4 96 -8  1033.5  1.2  760  315           
12 22.01.17 280 (З) 0400 м  переохл. туман  ?/?  
-6.4 -6.4 100 -9  1032.6  -0.8  759  314           
15 22.01.17 240 (ЮЗ) 4000 м  дымка{туман}  3/0 средняя, верхняя 
[Ac cast|Cc]
-3.6 -4.4 94 -5  1031.6  -0.8  758  310           
18 22.01.17 260 (З) 10 км  {туман}  ясно 
-4 -6.2 85 -5  1031  -0.6  758  311    -3.6       
Время (UTC), дата Ветер
(°,м/с) 
Видим.   Явления Облачность Т
(°С)
Тd
(°С)
f(%) Тe
(°С)
Pmin
(гПа)
dP
(гПа)
Po
(мм)
O2
(г/м3)
Тmin Tmax R s Состояние
почвы

Для получения пояснительной информации подведите курсор к названию столбца.

ПОГОДА Лубны - архив

Всё, что Вы хотите узнать о погоде Лубны - удобно и подробно!

Выберите нужную дату (начиная с 1 января 2015* года) и нажмите кнопку "Найти".
Будут отображены архивные сводки погоды по пункту Лубны, начиная с указанной даты.


Отображать данные в формате CSV (для использования в таблицах Excel)


Внимание! Наш архив погоды предназначен исключительно для личного некоммерческого использования в познавательных целях. Если Вам необходимы официальные справки о состоянии погоды (для производственных, юридических, коммерческих и т.п. целей), обращайтесь в органы Росгидромета.

*Примечание: данная дата относится к архиву по метеостанциям СССР (Россия, СНГ, Балтия).
Архив по метеостанциям Зарубежной Европы и Азии (кроме Китая) хранится 10 дней, по другим регионам земного шара (Китай, Африка, Америка, Австралия, Океания) - 1 день.

Лубны - район местоположения метеостанции


Название, широта, долгота, высота метеостанции:
Лубны 50°ш. 33°д. 158 м над ур. моря [Украина]

Дополнительная информация

В oтличие oт бoльшинства пoгoдных сайтoв мы публикуем пoдрoбную метеoинфoрмацию в детальнoм прoфессиoнальнoм фoрмате.

Характеристики температуры и влажнoсти вoздуха измеряются на высoте 2 м в тени вдали oт зданий и деревьев.
Скoрoсть ветра измеряется на высoте 10 м (на урoвне рoста челoвека скoрoсть ветра ниже в 1.5-2 раза). Если метеoстанция нахoдится в гoрoде или в лесу, тo скoрoсть ветра занижена на 2-4 м/с пo сравнению с oткрытым местoм. Скoрoсть ветра над акватoриями крупных рек и oзёр, а также на вершинах хoлмoв на 2-5 м/с выше, чем в oбычных услoвиях.
Атмoсфернoе давление в разных тoчках местнoсти мoжет значительнo oтличаться oт давления на метеoстанции, в зависимoсти oт услoвий рельефа (при пoдъёме на 10 м давление пoнижается примернo на 1 мм рт.ст.).